Погода в Никольском

Россия / Санкт-Петербург и Ленинградская область     59°27′35″N   29°59′37″E
темп.,
°C
ветер,
м/с
пор.,
м/с
влажн.,
%
обл.,
%
осадки,
мм/ч
давл.,
гПа
погр.,
м
28 июля, ср
ср2800:00+18вюв2264100 0.0 101524
03:00+18юв2565100 0.0 101494
06:00+18ююв2668100 0.0 1012130
09:00+21ю2572100 0.3 1011287
12:00+23юз3464100 0.0 1011773
15:00+19юв2490100 1.1 1009119
18:00+21ююв3786100 2.6 1008455
21:00+19зюз259728 7.3 1007146
29 июля, чт
чт2900:00+17зюз23969 0.3 100645
03:00+16юз2597100 1.0 100597
06:00+15зюз399469 0.0 1004215
09:00+18зюз31083100 0.0 1004448
12:00+24юз365019 0.0 10031518
15:00+25з4848100 0.6 10022041
18:00+22зюз3866100 0.3 1001986
21:00+19сз257967 0.4 1001121
30 июля, пт
пт3000:00+16юз249180 0.0 100272
03:00+15юз312915 0.0 1001370
06:00+15юз31184100 0.0 1001517
09:00+19юз586335 0.0 10011474
12:00+21юз6947100 0.0 10012013
15:00+21зюз611515 0.6 10011603
18:00+20ююз5949100 0.0 9991335
21:00+18юз4116275 0.1 998808
31 июля, сб
сб3100:00+13ю3129031 0.2 997382
03:00+12ю51494100 0.9 996746
06:00+13ююз5119798 0.4 995801
09:00+16зюз5108488 0.7 9961100
12:00+21з69478 0.1 9981837
15:00+24з594125 0.1 9992127
18:00+24з474856 0.0 9991829
21:00+17зюз25822 0.1 1001111
1 августа, вс
вс100:00+15юз2597100 0.0 100196
03:00+14ю2697100 0.1 1000126
06:00+14ю399840 2.3 999254
09:00+17юз488774 2.7 999710
12:00+21юз695816 0.1 10001449
15:00+21юз6116251 0.3 10001512
18:00+22зюз611532 0.6 10011862
21:00+18зюз611635 0.6 1002944